Bar Harbor, ME

10:22 AM EDT on October 22, 2019 (GMT -0400)
Hancock County-Bar Harbor

Weather History for KBHB - August, 2019

Change the Weather History Date:

Sunday, August 18, 2019

  Actual Average Record
Temperature  
Mean Temperature 66 °F -  
Max Temperature 73 °F 79 °F 89 °F (1978)
Min Temperature 60 °F 57 °F 45 °F (1957)
Cooling Degree Days 2    
Growing Degree Days 16 (Base 50)    
Moisture  
Dew Point 63 °F    
Average Humidity 95    
Maximum Humidity 100    
Minimum Humidity 78    
Precipitation  
Precipitation 0.23 in - - ()
Sea Level Pressure  
Sea Level Pressure 30.02 in    
Wind  
Wind Speed 3 mph (ESE)    
Max Wind Speed 7 mph    
Max Gust Speed -    
Visibility 6 miles    
Events Fog , Rain    
Averages and records for this station are not official NWS values.
T = Trace of Precipitation, MM = Missing Value Source: NWS Daily Summary

Daily Weather History Graph

Daily Weather History Graph

Search for Another Location

Airport or City:

Astronomy

Aug. 18, 2019 Rise Set
Actual Time 5:39 AM EDT 7:34 PM EDT
Civil Twilight 5:08 AM EDT 8:05 PM EDT
Nautical Twilight 4:29 AM EDT 8:43 PM EDT
Astronomical Twilight 3:47 AM EDT 9:25 PM EDT
Moon 9:21 PM EDT (8/18) 8:26 AM EDT (8/18)
Length of Visible Light 14h 57m
Length of Day
13h 54m
Waning Gibbous, 91% of the Moon is Illuminated
Aug 18
Waning Gibbous
Aug 23
Last Quarter
Aug 30
New
Sep 5
First Quarter
Sep 14
Full

Hourly Weather History & Observations

Time (EDT) Temp. Dew Point Humidity Pressure Visibility Wind Dir Wind Speed Gust Speed Precip Events Conditions
12:49 AM 60.8 °F 60.8 °F 100% 30.04 in 3.0 mi East 4.6 mph - N/A   Overcast
12:56 AM 61.0 °F 61.0 °F 100% 30.05 in 1.8 mi East 3.5 mph - N/A   Overcast
1:17 AM 60.8 °F 60.8 °F 100% 30.04 in 1.0 mi Calm Calm - N/A   Overcast
1:37 AM 60.8 °F 60.8 °F 100% 30.04 in 0.8 mi Calm Calm - N/A   Overcast
1:56 AM 61.0 °F 61.0 °F 100% 30.04 in 0.8 mi Calm Calm - N/A   Overcast
2:20 AM 60.8 °F 60.8 °F 100% 30.02 in 0.5 mi Calm Calm - N/A Fog Fog
2:56 AM 61.0 °F 61.0 °F 100% 30.02 in 0.5 mi Calm Calm - N/A Fog Fog
3:56 AM 61.0 °F 61.0 °F 100% 30.00 in 0.5 mi ESE 4.6 mph - N/A Fog Fog
4:42 AM 62.6 °F 62.6 °F 100% 30.02 in 0.5 mi North 4.6 mph - 0.01 in Fog , Rain Light Rain
4:52 AM 62.6 °F 62.6 °F 100% 30.02 in 1.0 mi NNE 4.6 mph - 0.02 in Rain Light Rain
4:56 AM 62.1 °F 62.1 °F 100% 30.02 in 1.0 mi North 3.5 mph - 0.02 in Rain Light Rain
5:13 AM 62.6 °F 62.6 °F 100% 30.02 in 0.8 mi North 4.6 mph - 0.00 in   Overcast
5:28 AM 62.6 °F 62.6 °F 100% 30.02 in 1.2 mi North 3.5 mph - 0.01 in Rain Light Rain
5:56 AM 62.1 °F 62.1 °F 100% 30.03 in 2.0 mi Calm Calm - 0.19 in Rain Light Rain
6:11 AM 62.6 °F 62.6 °F 100% 30.03 in 9.0 mi Calm Calm - 0.00 in   Overcast
6:56 AM 62.1 °F 62.1 °F 100% 30.04 in 10.0 mi Calm Calm - 0.01 in   Overcast
7:34 AM 62.6 °F 62.6 °F 100% 30.03 in 9.0 mi Calm Calm - 0.00 in Rain Light Rain
7:56 AM 64.0 °F 63.0 °F 96% 30.04 in 10.0 mi Calm Calm - 0.00 in Rain Light Rain
8:10 AM 64.4 °F 64.4 °F 100% 30.03 in 10.0 mi SE 3.5 mph - 0.01 in   Overcast
8:47 AM 64.4 °F 62.6 °F 94% 30.03 in 10.0 mi East 4.6 mph - 0.01 in   Overcast
8:56 AM 64.0 °F 63.0 °F 96% 30.03 in 10.0 mi Variable 3.5 mph - 0.01 in   Overcast
9:23 AM 66.2 °F 64.4 °F 94% 30.02 in 10.0 mi East 4.6 mph - N/A   Overcast
9:56 AM 66.9 °F 64.9 °F 93% 30.03 in 10.0 mi Calm Calm - N/A   Mostly Cloudy
10:47 AM 68.0 °F 64.4 °F 88% 30.02 in 10.0 mi ESE 4.6 mph - N/A   Overcast
10:56 AM 68.0 °F 64.9 °F 90% 30.03 in 10.0 mi ESE 5.8 mph - N/A   Overcast
11:35 AM 68.0 °F 64.4 °F 88% 30.01 in 10.0 mi Calm Calm - N/A   Overcast
11:56 AM 68.0 °F 64.9 °F 90% 30.02 in 10.0 mi East 4.6 mph - N/A   Overcast
12:51 PM 66.2 °F 64.4 °F 94% 30.01 in 10.0 mi ESE 6.9 mph - N/A   Overcast
12:56 PM 68.0 °F 64.9 °F 90% 30.02 in 10.0 mi ESE 6.9 mph - N/A   Overcast
1:09 PM 68.0 °F 64.4 °F 88% 30.02 in 10.0 mi East 4.6 mph - N/A   Overcast
1:56 PM 71.1 °F 66.9 °F 87% 30.02 in 10.0 mi Calm Calm - N/A   Overcast
2:56 PM 72.0 °F 66.9 °F 84% 30.02 in 10.0 mi South 4.6 mph - N/A   Overcast
3:56 PM 72.0 °F 66.9 °F 84% 30.02 in 10.0 mi SSE 5.8 mph - N/A   Overcast
4:56 PM 71.1 °F 66.9 °F 87% 30.01 in 10.0 mi SE 3.5 mph - N/A   Overcast
5:31 PM 73.4 °F 66.2 °F 78% 30.00 in 10.0 mi SSE 3.5 mph - N/A   Partly Cloudy
5:56 PM 73.9 °F 66.9 °F 79% 30.00 in 10.0 mi SSE 4.6 mph - N/A   Clear
6:56 PM 70.0 °F 66.0 °F 87% 30.01 in 10.0 mi Calm Calm - N/A   Clear
7:56 PM 66.0 °F 64.9 °F 96% 30.01 in 10.0 mi Calm Calm - N/A   Clear
8:56 PM 64.0 °F 63.0 °F 96% 30.03 in 2.5 mi ENE 3.5 mph - N/A   Clear
9:10 PM 62.6 °F 62.6 °F 100% 30.02 in 10.0 mi Calm Calm - N/A   Clear
9:56 PM 62.1 °F 61.0 °F 96% 30.03 in 10.0 mi SSW 3.5 mph - N/A   Partly Cloudy
10:26 PM 62.6 °F 62.6 °F 100% 30.02 in 10.0 mi Calm Calm - N/A   Mostly Cloudy
10:40 PM 62.6 °F 62.6 °F 100% 30.03 in 10.0 mi Calm Calm - N/A   Scattered Clouds
10:56 PM 62.1 °F 62.1 °F 100% 30.03 in 8.0 mi Calm Calm - N/A   Mostly Cloudy
11:36 PM 62.6 °F 62.6 °F 100% 30.02 in 1.8 mi Calm Calm - N/A   Overcast
11:42 PM 62.6 °F 62.6 °F 100% 30.01 in 0.8 mi ESE 3.5 mph - N/A   Overcast
11:56 PM 62.1 °F 62.1 °F 100% 30.02 in 0.2 mi East 3.5 mph - N/A Fog Fog